QTR29A OKKK-OBBI

Flight info

Callsign QTR29A
Flight time 0h 50m
Altitude 27000
Route BOXIK4E BOXIK B416 IMDOX P975 LONOS L703 KOBOK KOBOK1
Aircraft A339/H-V/N

Departure

Time 2026-04-27 11:03
Airport Kuwait International Airport (OKKK)

Arrival

Time 2026-04-27 11:54
Airport Bahrain International Airport (OBBI)
Time Latitude Longitude Altitude Speed Heading
2026-04-27 10:35 29.24908 47.96078 219 ft 0 kts 58°
2026-04-27 10:56 29.24876 47.96018 219 ft 2 kts 58°
2026-04-27 10:56 29.24869 47.96003 219 ft 2 kts 77°
2026-04-27 10:57 29.24868 47.95986 218 ft 2 kts 101°
2026-04-27 10:57 29.24873 47.95969 218 ft 2 kts 122°
2026-04-27 10:57 29.24883 47.95956 218 ft 2 kts 144°
2026-04-27 10:57 29.24890 47.95951 218 ft 1 kts 157°
2026-04-27 10:58 29.24893 47.95950 218 ft 0 kts 156°
2026-04-27 10:59 29.24891 47.95951 218 ft 1 kts 155°
2026-04-27 11:00 29.24807 47.95996 218 ft 11 kts 154°
2026-04-27 11:00 29.24723 47.96041 218 ft 15 kts 154°
2026-04-27 11:00 29.24617 47.96099 218 ft 17 kts 155°
2026-04-27 11:00 29.24503 47.96158 218 ft 17 kts 154°
2026-04-27 11:01 29.24389 47.96219 218 ft 17 kts 156°
2026-04-27 11:01 29.24273 47.96280 219 ft 18 kts 156°
2026-04-27 11:01 29.24181 47.96307 219 ft 11 kts 207°
2026-04-27 11:01 29.24134 47.96227 219 ft 12 kts 240°
2026-04-27 11:02 29.24072 47.96181 219 ft 10 kts 182°
2026-04-27 11:02 29.23990 47.96186 219 ft 11 kts 161°
2026-04-27 11:02 29.23874 47.96247 219 ft 39 kts 154°
2026-04-27 11:02 29.23436 47.96479 219 ft 99 kts 154°
2026-04-27 11:03 29.22644 47.96900 222 ft 149 kts 151°
2026-04-27 11:03 29.21627 47.97421 575 ft 161 kts 152°
2026-04-27 11:03 29.20649 47.97953 1245 ft 154 kts 145°
2026-04-27 11:03 29.19976 47.98834 1825 ft 150 kts 118°
2026-04-27 11:04 29.19518 47.99927 2168 ft 158 kts 116°
2026-04-27 11:04 29.19030 48.01123 2419 ft 171 kts 117°
2026-04-27 11:04 29.18493 48.02398 2674 ft 185 kts 117°
2026-04-27 11:04 29.17890 48.03790 2939 ft 200 kts 118°
2026-04-27 11:05 29.17244 48.05262 3215 ft 215 kts 118°
2026-04-27 11:05 29.16535 48.06864 3515 ft 232 kts 118°
2026-04-27 11:05 29.15783 48.08565 3820 ft 250 kts 116°
2026-04-27 11:05 29.15208 48.10537 4161 ft 268 kts 102°
2026-04-27 11:06 29.15055 48.12696 4758 ft 274 kts 92°
2026-04-27 11:06 29.15055 48.14869 5406 ft 278 kts 91°
2026-04-27 11:06 29.15074 48.17114 6023 ft 283 kts 90°
2026-04-27 11:06 29.15091 48.19397 6602 ft 288 kts 91°
2026-04-27 11:07 29.15102 48.21696 6922 ft 291 kts 91°
2026-04-27 11:07 29.15109 48.24025 6974 ft 292 kts 91°
2026-04-27 11:07 29.15113 48.26387 6972 ft 292 kts 91°
2026-04-27 11:07 29.15114 48.28704 6995 ft 293 kts 91°
2026-04-27 11:08 29.15114 48.31059 7188 ft 299 kts 91°
2026-04-27 11:08 29.14951 48.33452 7863 ft 300 kts 107°
2026-04-27 11:08 29.14031 48.35524 8560 ft 297 kts 131°
2026-04-27 11:08 29.12664 48.37335 9238 ft 300 kts 134°
2026-04-27 11:09 29.11283 48.39111 9849 ft 305 kts 134°
2026-04-27 11:09 29.09862 48.40942 10441 ft 312 kts 134°
2026-04-27 11:09 29.08379 48.42860 10781 ft 328 kts 134°
2026-04-27 11:09 29.06825 48.44877 11098 ft 345 kts 133°
2026-04-27 11:10 29.05194 48.47002 11388 ft 363 kts 133°
2026-04-27 11:10 29.03469 48.49253 11765 ft 377 kts 133°
2026-04-27 11:10 29.01723 48.51537 12392 ft 383 kts 133°
2026-04-27 11:10 28.99960 48.53841 13089 ft 386 kts 133°
2026-04-27 11:11 28.98167 48.56184 13829 ft 389 kts 134°
2026-04-27 11:11 28.96377 48.58523 14531 ft 393 kts 134°
2026-04-27 11:11 28.94568 48.60883 15193 ft 397 kts 134°
2026-04-27 11:11 28.92720 48.63296 15877 ft 401 kts 134°
2026-04-27 11:12 28.90863 48.65717 16549 ft 405 kts 135°
2026-04-27 11:12 28.88970 48.68182 17223 ft 408 kts 135°
2026-04-27 11:12 28.87096 48.70618 17879 ft 412 kts 135°
2026-04-27 11:12 28.85201 48.73082 18512 ft 416 kts 135°
2026-04-27 11:13 28.83258 48.75606 19133 ft 420 kts 135°
2026-04-27 11:13 28.81390 48.78167 19729 ft 427 kts 131°
2026-04-27 11:13 28.79625 48.80973 20290 ft 434 kts 127°
2026-04-27 11:13 28.78054 48.83938 20838 ft 440 kts 123°
2026-04-27 11:14 28.76540 48.87014 21393 ft 444 kts 123°
2026-04-27 11:14 28.75023 48.90133 21910 ft 448 kts 123°
2026-04-27 11:14 28.73516 48.93233 22545 ft 449 kts 123°
2026-04-27 11:14 28.71994 48.96350 23129 ft 451 kts 123°
2026-04-27 11:15 28.70470 48.99462 23621 ft 454 kts 123°
2026-04-27 11:15 28.68907 49.02647 24249 ft 454 kts 124°
2026-04-27 11:15 28.67361 49.05796 24889 ft 453 kts 124°
2026-04-27 11:15 28.65824 49.08923 25432 ft 454 kts 124°
2026-04-27 11:16 28.64269 49.12079 25844 ft 458 kts 124°
2026-04-27 11:16 28.62709 49.15241 26251 ft 462 kts 124°
2026-04-27 11:16 28.61106 49.18464 26665 ft 464 kts 127°
2026-04-27 11:16 28.59123 49.21298 26822 ft 453 kts 144°
2026-04-27 11:17 28.56670 49.23548 26831 ft 447 kts 150°
2026-04-27 11:17 28.54190 49.25655 26827 ft 448 kts 150°
2026-04-27 11:17 28.51720 49.27868 26826 ft 450 kts 148°
2026-04-27 11:17 28.49304 49.30155 26825 ft 452 kts 147°
2026-04-27 11:18 28.46906 49.32492 26827 ft 452 kts 146°
2026-04-27 11:18 28.44546 49.34831 26833 ft 453 kts 146°
2026-04-27 11:18 28.42184 49.37187 26828 ft 453 kts 146°
2026-04-27 11:18 28.39795 49.39567 26824 ft 453 kts 146°
2026-04-27 11:19 28.26347 49.52904 26825 ft 453 kts 146°
2026-04-27 11:19 28.19847 49.59184 26823 ft 450 kts 150°
2026-04-27 11:19 28.17355 49.61299 26826 ft 450 kts 151°
2026-04-27 11:19 28.14804 49.63435 26823 ft 450 kts 150°
2026-04-27 11:20 28.12292 49.65554 26824 ft 451 kts 151°
2026-04-27 11:20 28.09773 49.67702 26821 ft 451 kts 150°
2026-04-27 11:20 28.07285 49.69834 26822 ft 451 kts 150°
2026-04-27 11:20 28.04767 49.71974 26820 ft 450 kts 152°
2026-04-27 11:21 28.02183 49.74012 26823 ft 449 kts 153°
2026-04-27 11:21 27.99595 49.76025 26821 ft 449 kts 153°
2026-04-27 11:21 27.97004 49.78033 26820 ft 450 kts 153°
2026-04-27 11:21 27.94386 49.80069 26818 ft 449 kts 153°
2026-04-27 11:22 27.91808 49.82069 26813 ft 450 kts 153°
2026-04-27 11:22 27.89213 49.84084 26814 ft 450 kts 153°
2026-04-27 11:22 27.86604 49.86110 26812 ft 451 kts 153°
2026-04-27 11:22 27.84000 49.88131 26812 ft 450 kts 153°
2026-04-27 11:23 27.81410 49.90140 26813 ft 450 kts 153°
2026-04-27 11:23 27.78832 49.92134 26813 ft 450 kts 153°
2026-04-27 11:23 27.76225 49.94147 26813 ft 451 kts 153°
2026-04-27 11:23 27.73624 49.96156 26813 ft 451 kts 153°
2026-04-27 11:24 27.71033 49.98158 26811 ft 452 kts 153°
2026-04-27 11:24 27.68410 50.00184 26812 ft 452 kts 153°
2026-04-27 11:24 27.65802 50.02199 26719 ft 453 kts 153°
2026-04-27 11:24 27.63210 50.04195 26113 ft 457 kts 153°
2026-04-27 11:25 27.60563 50.06234 25462 ft 459 kts 153°
2026-04-27 11:25 27.57909 50.08279 24849 ft 460 kts 153°
2026-04-27 11:25 27.55279 50.10307 24250 ft 460 kts 152°
2026-04-27 11:25 27.52624 50.12353 23634 ft 461 kts 152°
2026-04-27 11:26 27.49996 50.14379 23060 ft 460 kts 152°
2026-04-27 11:26 27.47346 50.16420 22635 ft 456 kts 152°
2026-04-27 11:26 27.44740 50.18424 22231 ft 451 kts 151°
2026-04-27 11:26 27.42180 50.20454 21821 ft 448 kts 150°
2026-04-27 11:27 27.39688 50.22482 21418 ft 444 kts 149°
2026-04-27 11:27 27.37179 50.24533 21026 ft 439 kts 149°
2026-04-27 11:27 27.34714 50.26543 20641 ft 435 kts 149°
2026-04-27 11:27 27.32256 50.28540 20258 ft 430 kts 149°
2026-04-27 11:28 27.29825 50.30510 19871 ft 426 kts 148°
2026-04-27 11:28 27.27450 50.32430 19494 ft 422 kts 148°
2026-04-27 11:28 27.25051 50.34367 19092 ft 418 kts 148°
2026-04-27 11:28 27.22707 50.36258 18711 ft 414 kts 148°
2026-04-27 11:29 27.20346 50.38163 18322 ft 410 kts 148°
2026-04-27 11:29 27.18038 50.40025 17941 ft 407 kts 147°
2026-04-27 11:29 27.15745 50.41875 17567 ft 403 kts 147°
2026-04-27 11:29 27.13479 50.43707 17207 ft 398 kts 147°
2026-04-27 11:30 27.11257 50.45498 16831 ft 395 kts 147°
2026-04-27 11:30 27.09019 50.47305 16431 ft 393 kts 147°
2026-04-27 11:30 27.06799 50.49092 16047 ft 390 kts 147°
2026-04-27 11:30 27.04602 50.50863 15653 ft 387 kts 147°
2026-04-27 11:31 27.02399 50.52634 15268 ft 385 kts 147°
2026-04-27 11:31 27.00237 50.54380 14882 ft 382 kts 147°
2026-04-27 11:31 26.97999 50.55976 14474 ft 376 kts 159°
2026-04-27 11:31 26.95513 50.56719 14080 ft 368 kts 176°
2026-04-27 11:32 26.92927 50.56842 13730 ft 365 kts 182°
2026-04-27 11:32 26.90393 50.56873 13473 ft 365 kts 182°
2026-04-27 11:32 26.87908 50.56918 13232 ft 364 kts 181°
2026-04-27 11:32 26.85354 50.56988 12999 ft 363 kts 181°
2026-04-27 11:33 26.82833 50.57079 12770 ft 362 kts 181°
2026-04-27 11:33 26.80284 50.57183 12539 ft 362 kts 180°
2026-04-27 11:33 26.77763 50.57291 12328 ft 360 kts 180°
2026-04-27 11:33 26.75243 50.57402 12110 ft 360 kts 180°
2026-04-27 11:34 26.72742 50.57514 11816 ft 358 kts 180°
2026-04-27 11:34 26.70231 50.57629 11461 ft 356 kts 180°
2026-04-27 11:34 26.67771 50.57740 11104 ft 354 kts 180°
2026-04-27 11:34 26.65307 50.57853 10731 ft 352 kts 180°
2026-04-27 11:35 26.62843 50.57964 10364 ft 350 kts 180°
2026-04-27 11:35 26.60444 50.58074 10225 ft 341 kts 180°
2026-04-27 11:35 26.58086 50.58181 10177 ft 328 kts 180°
2026-04-27 11:35 26.55850 50.58287 10109 ft 317 kts 179°
2026-04-27 11:36 26.53711 50.58832 9933 ft 315 kts 153°
2026-04-27 11:36 26.52064 50.60453 9690 ft 317 kts 124°
2026-04-27 11:36 26.50971 50.62575 9440 ft 316 kts 118°
2026-04-27 11:36 26.49940 50.64721 9134 ft 315 kts 119°
2026-04-27 11:37 26.48852 50.66855 8874 ft 313 kts 121°
2026-04-27 11:37 26.47723 50.68943 8604 ft 312 kts 122°
2026-04-27 11:37 26.46578 50.70999 8318 ft 311 kts 123°
2026-04-27 11:37 26.46191 50.71688 8223 ft 311 kts 123°
2026-04-27 11:38 26.39758 50.73401 7074 ft 285 kts 223°
2026-04-27 11:38 26.38544 50.71708 6813 ft 277 kts 248°
2026-04-27 11:39 26.38133 50.69665 6571 ft 272 kts 272°
2026-04-27 11:39 26.38583 50.67617 6302 ft 270 kts 298°
2026-04-27 11:39 26.39595 50.65848 6081 ft 270 kts 303°
2026-04-27 11:39 26.40642 50.64074 5776 ft 271 kts 302°
2026-04-27 11:40 26.41660 50.62328 5460 ft 271 kts 302°
2026-04-27 11:40 26.42684 50.60559 5220 ft 270 kts 302°
2026-04-27 11:40 26.43705 50.58785 5032 ft 267 kts 302°
2026-04-27 11:40 26.44681 50.57084 4973 ft 250 kts 302°
2026-04-27 11:41 26.45588 50.55502 4974 ft 241 kts 302°
2026-04-27 11:41 26.46493 50.53924 4946 ft 234 kts 302°
2026-04-27 11:41 26.47368 50.52418 4895 ft 229 kts 303°
2026-04-27 11:41 26.48253 50.50938 4711 ft 227 kts 303°
2026-04-27 11:42 26.49142 50.49461 4559 ft 224 kts 303°
2026-04-27 11:42 26.50005 50.48027 4371 ft 221 kts 303°
2026-04-27 11:42 26.50868 50.46595 4144 ft 221 kts 303°
2026-04-27 11:42 26.51716 50.45170 3908 ft 221 kts 300°
2026-04-27 11:43 26.52190 50.43451 3668 ft 246 kts 270°
2026-04-27 11:43 26.51766 50.41562 3426 ft 258 kts 241°
2026-04-27 11:43 26.50518 50.40092 3184 ft 268 kts 213°
2026-04-27 11:43 26.48845 50.39147 2953 ft 269 kts 205°
2026-04-27 11:44 26.47108 50.38324 2711 ft 268 kts 204°
2026-04-27 11:44 26.45380 50.37521 2470 ft 269 kts 203°
2026-04-27 11:44 26.43617 50.36833 2205 ft 268 kts 187°
2026-04-27 11:44 26.41802 50.37162 2012 ft 262 kts 149°
2026-04-27 11:45 26.40578 50.38583 1996 ft 247 kts 112°
2026-04-27 11:45 26.40171 50.39770 2001 ft 239 kts 108°
2026-04-27 11:45 26.39329 50.41996 1990 ft 229 kts 116°
2026-04-27 11:45 26.38538 50.43555 1997 ft 231 kts 120°
2026-04-27 11:46 26.37680 50.45092 1988 ft 231 kts 121°
2026-04-27 11:46 26.36808 50.46596 1987 ft 231 kts 122°
2026-04-27 11:46 26.35923 50.48113 1984 ft 231 kts 121°
2026-04-27 11:46 26.35045 50.49622 1991 ft 225 kts 122°
2026-04-27 11:47 26.34224 50.51036 1962 ft 206 kts 122°
2026-04-27 11:47 26.33470 50.52336 1881 ft 188 kts 121°
2026-04-27 11:47 26.32779 50.53529 1732 ft 177 kts 121°
2026-04-27 11:47 26.32123 50.54663 1480 ft 172 kts 121°
2026-04-27 11:48 26.31480 50.55776 1245 ft 167 kts 121°
2026-04-27 11:48 26.30855 50.56853 1022 ft 161 kts 121°
2026-04-27 11:48 26.30257 50.57885 820 ft 155 kts 121°
2026-04-27 11:48 26.30116 50.58128 773 ft 153 kts 121°
2026-04-27 11:49 26.30072 50.58204 759 ft 152 kts 121°
2026-04-27 11:49 26.30051 50.58241 753 ft 152 kts 121°
2026-04-27 11:50 26.30036 50.58266 748 ft 152 kts 121°
2026-04-27 11:51 26.30032 50.58273 747 ft 152 kts 121°
2026-04-27 11:52 26.29783 50.58703 671 ft 149 kts 121°
2026-04-27 11:52 26.29233 50.59644 478 ft 149 kts 122°
2026-04-27 11:52 26.28952 50.60123 386 ft 149 kts 122°
2026-04-27 11:53 26.28505 50.60894 243 ft 149 kts 121°
2026-04-27 11:53 26.28141 50.61530 129 ft 148 kts 121°
2026-04-27 11:53 26.27586 50.62495 30 ft 141 kts 122°
2026-04-27 11:53 26.27139 50.63285 20 ft 83 kts 124°
2026-04-27 11:54 26.26940 50.63618 20 ft 33 kts 123°
2026-04-27 11:54 26.26835 50.63730 20 ft 18 kts 163°
2026-04-27 11:54 26.26720 50.63766 20 ft 15 kts 165°
2026-04-27 11:54 26.26611 50.63770 20 ft 13 kts 198°
2026-04-27 11:55 26.26572 50.63706 20 ft 10 kts 285°
2026-04-27 11:55 26.26623 50.63601 20 ft 18 kts 302°
2026-04-27 11:55 26.26698 50.63468 20 ft 22 kts 303°
2026-04-27 11:55 26.26818 50.63263 20 ft 17 kts 303°
2026-04-27 11:56 26.26877 50.63161 20 ft 14 kts 302°
2026-04-27 11:56 26.26916 50.63092 20 ft 5 kts 302°
2026-04-27 11:56 26.26915 50.63071 20 ft 4 kts 233°
2026-04-27 11:56 26.26887 50.63048 20 ft 6 kts 213°
2026-04-27 11:57 26.26850 50.63021 20 ft 6 kts 213°
2026-04-27 11:57 26.26844 50.63017 20 ft 0 kts 213°
2026-04-27 11:58 26.27093 50.62550 20 ft 0 kts 213°
2026-04-27 11:59 26.26844 50.63018 20 ft 0 kts 213°